Location: Wellington
(41.3000°S, 174.7830°E)
Time: 18:29:25
(UTC+13:00)

Cosmos 2227 - Pass Details

Date: 24 January 2019
Orbit: 833 x 863 km, 71.0° (Epoch: 23 October)

Event Time Altitude Azimuth Distance (km) Brightness Sun altitude
Rises 21:16:35 0° 202° (SSW) 3,442 8.4 -5.3°
Reaches altitude 10° 21:19:05 10° 199° (SSW) 2,496 7.5 -5.7°
Maximum altitude 21:24:47 66° 116° (ESE) 925 4.3 -6.6°
Drops below altitude 10° 21:30:23 10° 33° (NNE) 2,451 6.0 -7.5°
Enters shadow 21:31:11 - 32° (NNE) 2,752 6.3 -7.6°
